Torna al catalogo

COSMOS 1818 COOLANT

AttivoLEO
NORAD 36936·DEBRIS·🇷🇺 Russia

Lanciato Feb 1, 1987 da Baikonur Cosmodrome

Loading…

Prossimi Passaggi (prossime 24 ore)

TLE

ObsoletoSource: Space-Track

Epoca: Aug 22, 2026, 23:40 UTC

1 36936U 87011Q   26234.98666196  .00000643  00000-0  23383-3 0  9997
2 36936  65.0010 332.6879 0019967 281.4838  78.4008 14.40389015293618

Traccia COSMOS 1818 COOLANT in tempo reale con AllMySat

Download on the App Store